FW2998 Weather Reports


time (UTC)temp
F
wind
direction
speed
knots
gust
knots
rain 1hr
in
rain 24hr
in
rain mn
in
humidity
%
barometer
mb
20240723044022 75 0 0.0 0.0 0.00 0.01 0.00 96 1018.3
20240723043520 75 0 0.0 0.0 0.00 0.01 0.00 96 1018.4
20240723043025 76 0 0.0 0.0 0.00 0.01 0.00 97 1018.3
20240723042525 75 0 0.0 0.0 0.00 0.01 0.00 96 1018.3
20240723042022 76 0 0.0 0.0 0.00 0.01 0.00 97 1018.5
20240723041524 76 0 0.0 0.0 0.00 0.01 0.00 96 1018.6
20240723041024 76 0 0.0 0.0 0.00 0.01 0.00 96 1018.6
20240723040524 76 0 0.0 0.0 0.00 0.01 0.00 96 1018.4
20240723040032 76 0 0.0 0.0 0.00 0.01 0.00 96 1018.6
20240723035521 76 0 0.0 0.0 0.00 0.02 0.01 96 1018.4
20240723035020 76 0 0.0 0.0 0.00 0.02 0.01 96 1018.5
20240723034533 76 0 0.0 0.0 0.00 0.02 0.01 96 1018.4
20240723034021 76 0 0.0 0.0 0.00 0.02 0.01 96 1018.5
20240723033524 76 0 0.0 0.0 0.00 0.02 0.01 96 1018.6
20240723033036 76 0 0.0 0.0 0.00 0.02 0.01 96 1018.7
20240723032524 76 0 0.0 0.0 0.00 0.02 0.01 96 1018.7
20240723032021 76 0 0.0 0.0 0.00 0.02 0.01 96 1018.7
20240723031536 76 0 0.0 0.0 0.00 0.02 0.01 96 1018.8
20240723031022 76 0 0.0 0.0 0.00 0.02 0.01 96 1018.8
20240723030520 76 0 0.0 0.0 0.00 0.02 0.01 96 1018.8
20240723030031 76 0 0.0 0.0 0.00 0.02 0.01 96 1018.8
20240723025523 76 0 0.0 0.0 0.00 0.02 0.01 96 1018.7
20240723025021 76 0 0.0 0.0 0.00 0.02 0.01 96 1018.6
20240723024524 76 0 0.0 0.0 0.00 0.02 0.01 96 1018.6
20240723024023 76 0 0.0 0.0 0.00 0.02 0.01 96 1018.6
20240723023522 76 0 0.0 0.0 0.00 0.02 0.01 96 1018.6
20240723023026 76 0 0.0 0.0 0.00 0.02 0.01 96 1018.6
20240723022521 76 0 0.0 0.0 0.00 0.02 0.01 95 1018.5
20240723022023 76 0 0.0 0.0 0.00 0.02 0.01 95 1018.4
20240723021524 76 0 0.0 0.0 0.00 0.02 0.01 95 1018.3
20240723021021 76 0 0.0 0.0 0.00 0.02 0.01 95 1018.1
20240723020524 76 0 0.0 0.0 0.00 0.02 0.01 95 1018.1
20240723020028 76 0 0.0 0.0 0.00 0.02 0.01 95 1018.0
20240723015520 76 0 0.0 0.0 0.00 0.07 0.01 95 1017.9
20240723015025 76 0 0.0 0.0 0.00 0.07 0.01 95 1017.9
20240723014532 76 0 0.0 0.0 0.00 0.07 0.01 95 1017.8
20240723014022 76 0 0.0 0.0 0.00 0.07 0.01 94 1017.6
20240723013521 76 0 0.0 0.0 0.00 0.07 0.01 95 1017.6
20240723013023 76 0 0.0 0.0 0.01 0.07 0.01 95 1017.6
20240723012520 76 0 0.0 0.0 0.01 0.07 0.01 95 1017.5
20240723012021 76 0 0.0 0.0 0.01 0.07 0.01 95 1017.5
20240723011525 76 0 0.0 0.0 0.01 0.07 0.01 95 1017.4
20240723011020 76 0 0.0 0.0 0.01 0.07 0.01 95 1017.3
20240723010523 77 0 0.0 0.0 0.01 0.07 0.01 95 1017.3
20240723010042 76 0 0.0 0.0 0.01 0.07 0.01 94 1017.1
20240723005524 76 0 0.0 0.0 0.01 0.13 0.01 94 1017.2
20240723005023 76 0 0.0 0.0 0.01 0.13 0.01 92 1017.2
20240723004525 77 0 0.0 0.0 0.01 0.13 0.01 91 1017.1
20240723004023 78 0 0.0 0.0 0.01 0.13 0.01 89 1017.1
20240723003521 79 0 0.0 2.6 0.01 0.13 0.01 87 1017.3
20240723003026 79 0 0.0 2.6 0.00 0.12 0.00 84 1017.3
20240723002522 79 0 0.0 2.6 0.00 0.12 0.00 84 1017.1
20240723002022 80 101 0.0 1.7 0.00 0.12 0.00 83 1017.1
20240723001526 80 0 0.0 2.6 0.00 0.12 0.00 83 1016.9
20240723001021 80 101 0.0 3.5 0.00 0.12 0.00 82 1016.7
20240723000521 80 0 0.0 3.5 0.00 0.12 0.00 82 1016.7
20240723000023 81 100 0.9 3.5 0.00 0.12 0.00 82 1016.7
20240722235522 81 0 0.0 2.6 0.00 0.13 0.00 82 1016.7
20240722235020 82 0 0.0 2.6 0.00 0.13 0.00 83 1016.6
20240722234527 82 0 0.0 2.6 0.00 0.13 0.00 81 1016.4
20240722234021 82 0 0.0 1.7 0.00 0.13 0.00 79 1016.2
20240722233521 83 0 0.0 1.7 0.00 0.13 0.00 80 1016.1
20240722233024 83 0 0.0 1.7 0.00 0.13 0.00 80 1016.0
20240722232519 84 0 0.0 1.7 0.00 0.13 0.00 79 1015.9
20240722232019 84 0 0.0 2.6 0.00 0.13 0.00 80 1015.8
20240722231528 83 127 0.0 2.6 0.00 0.13 0.00 79 1016.0
20240722231022 84 102 0.0 0.9 0.00 0.13 0.00 80 1016.0
20240722230520 84 0 0.0 1.7 0.00 0.13 0.00 79 1015.9
20240722230028 84 0 0.0 1.7 0.00 0.13 0.00 80 1015.8
20240722225522 83 103 0.0 1.7 0.00 0.20 0.00 81 1015.9
20240722225022 83 0 0.0 0.0 0.00 0.20 0.00 80 1016.0
20240722224523 83 0 0.0 0.0 0.00 0.20 0.00 80 1016.0
20240722224021 83 0 0.0 0.0 0.00 0.20 0.00 81 1015.9
20240722223520 83 0 0.0 2.6 0.00 0.20 0.00 80 1015.9
20240722223028 84 0 0.0 3.5 0.00 0.20 0.00 79 1015.9
20240722222521 84 92 0.0 3.5 0.00 0.20 0.00 77 1015.8
20240722222022 85 89 0.0 3.5 0.00 0.20 0.00 76 1015.8
20240722221526 84 0 0.0 3.5 0.00 0.20 0.00 76 1015.9
20240722221020 85 0 0.0 3.5 0.00 0.20 0.00 75 1015.7
20240722220520 85 98 0.0 3.5 0.00 0.20 0.00 73 1015.8
20240722220025 86 79 0.0 3.5 0.00 0.20 0.00 73 1015.7
20240722215520 86 0 0.9 3.5 0.00 0.20 0.00 75 1015.7
20240722215020 86 98 0.0 2.6 0.00 0.20 0.00 73 1015.7
20240722214533 86 0 0.0 0.9 0.00 0.20 0.00 77 1015.8
20240722214018 85 0 0.0 1.7 0.00 0.20 0.00 75 1015.7
20240722213522 84 0 0.0 2.6 0.00 0.20 0.00 80 1015.9
20240722213024 84 0 0.0 2.6 0.00 0.20 0.00 77 1015.9
20240722212522 85 0 0.0 3.5 0.00 0.20 0.00 78 1016.0
20240722212019 84 0 0.0 5.2 0.00 0.20 0.00 79 1016.1
20240722211524 83 103 1.7 5.2 0.00 0.20 0.00 79 1016.1
20240722211021 83 121 0.9 4.3 0.00 0.20 0.00 79 1016.1
20240722210520 84 85 0.0 5.2 0.00 0.20 0.00 77 1016.2
20240722210036 85 108 0.9 5.2 0.00 0.20 0.00 75 1016.3
20240722205519 85 87 0.9 3.5 0.00 0.20 0.00 77 1016.2
20240722205022 84 0 0.0 5.2 0.00 0.20 0.00 78 1016.2
20240722204526 83 0 0.0 5.2 0.00 0.20 0.00 80 1016.2
20240722204024 82 104 0.9 3.5 0.00 0.20 0.00 79 1016.3
20240722203522 83 0 0.0 3.5 0.00 0.20 0.00 78 1016.4
20240722203026 83 105 0.0 3.5 0.00 0.20 0.00 77 1016.4
20240722202520 83 0 0.9 3.5 0.00 0.20 0.00 77 1016.6
20240722202020 84 0 0.0 2.6 0.00 0.20 0.00 78 1016.6
20240722201528 84 86 0.9 5.2 0.00 0.20 0.00 76 1016.7
20240722201019 83 0 0.0 5.2 0.00 0.20 0.00 80 1016.6
20240722200519 83 80 0.9 5.2 0.00 0.20 0.00 78 1016.7
20240722200031 84 94 0.9 3.5 0.00 0.20 0.00 80 1016.7
20240722195519 82 0 0.0 0.0 0.00 0.20 0.00 83 1016.7
20240722195019 82 0 0.0 3.5 0.00 0.20 0.00 82 1016.7
20240722194524 82 0 0.0 3.5 0.00 0.20 0.00 82 1016.6
20240722194020 82 0 0.0 3.5 0.00 0.20 0.00 83 1016.8
20240722193523 82 0 0.0 3.5 0.00 0.20 0.00 82 1016.8
20240722193021 82 0 0.0 5.2 0.00 0.20 0.00 82 1016.9
20240722192520 82 93 0.9 5.2 0.00 0.20 0.00 81 1017.0
20240722192021 83 0 1.7 5.2 0.00 0.20 0.00 78 1017.1
20240722191535 84 259 0.9 5.2 0.00 0.20 0.00 77 1017.2
20240722191020 85 0 0.0 1.7 0.00 0.20 0.00 76 1017.3
20240722190522 85 0 0.0 2.6 0.00 0.20 0.00 79 1017.4
20240722190026 84 0 0.0 2.6 0.00 0.20 0.00 78 1017.3
20240722185521 84 98 0.0 3.5 0.00 0.20 0.00 78 1017.3
20240722185021 84 0 0.0 7.8 0.00 0.20 0.00 78 1017.1
20240722184528 84 96 0.0 7.8 0.00 0.20 0.00 77 1017.1
20240722184019 86 70 0.9 7.8 0.00 0.20 0.00 76 1017.2
20240722183519 88 0 0.0 2.6 0.00 0.20 0.00 71 1017.3
20240722183026 88 0 0.0 2.6 0.00 0.20 0.00 67 1017.2
20240722182519 90 0 0.0 1.7 0.00 0.20 0.00 63 1017.3
20240722182019 91 0 0.0 2.6 0.00 0.20 0.00 67 1017.3
20240722181530 89 0 0.0 2.6 0.00 0.20 0.00 65 1017.3
20240722181020 88 0 0.0 4.3 0.00 0.20 0.00 69 1017.4
20240722180520 90 0 0.0 4.3 0.00 0.20 0.00 66 1017.4
20240722180027 89 310 0.0 2.6 0.00 0.20 0.00 67 1017.4
20240722175521 90 0 0.0 7.0 0.00 0.20 0.00 62 1017.5
20240722175020 90 0 0.0 7.0 0.00 0.20 0.00 66 1017.5
20240722174526 88 0 0.0 2.6 0.00 0.20 0.00 70 1017.6
20240722174022 87 0 0.0 1.7 0.00 0.20 0.00 70 1017.6
20240722173521 88 0 0.0 3.5 0.00 0.20 0.00 69 1017.7
20240722173026 89 0 0.0 6.1 0.00 0.20 0.00 71 1017.7
20240722172521 88 68 0.0 6.1 0.00 0.20 0.00 69 1017.8
20240722172019 86 0 0.9 3.5 0.00 0.20 0.00 69 1017.9
20240722171529 87 0 0.0 2.6 0.00 0.20 0.00 72 1018.0
20240722171020 86 0 0.0 3.5 0.00 0.20 0.00 70 1018.2
20240722170519 87 0 0.0 3.5 0.00 0.20 0.00 73 1018.2
20240722170035 88 306 0.0 6.1 0.00 0.20 0.00 68 1018.3
20240722165523 86 292 0.0 6.1 0.00 0.20 0.00 73 1018.4
20240722165019 87 99 0.9 6.1 0.00 0.20 0.00 71 1018.3
20240722164551 88 239 0.0 0.0 0.00 0.20 0.00 74 1018.4
20240722164019 87 0 0.0 1.7 0.00 0.20 0.00 72 1018.4
20240722163520 87 0 0.0 2.6 0.00 0.20 0.00 74 1018.6
20240722163022 86 278 0.0 2.6 0.00 0.20 0.00 75 1018.5
20240722162520 87 0 0.0 0.9 0.00 0.20 0.00 73 1018.6
20240722162020 87 0 0.0 2.6 0.00 0.20 0.00 76 1018.5
20240722161528 86 0 0.0 5.2 0.00 0.20 0.00 73 1018.6
20240722161019 86 287 0.0 5.2 0.00 0.20 0.00 74 1018.7
20240722160519 87 277 0.0 2.6 0.00 0.20 0.00 73 1018.7
20240722160024 84 286 0.0 2.6 0.00 0.20 0.00 79 1018.7
20240722155520 85 0 0.0 2.6 0.00 0.20 0.00 74 1018.7
20240722155019 85 0 0.0 2.6 0.00 0.20 0.00 77 1018.7
20240722154530 85 0 0.0 2.6 0.00 0.20 0.00 74 1018.6
20240722154022 85 107 0.0 0.0 0.00 0.20 0.00 80 1018.6
20240722153520 84 0 0.0 2.6 0.00 0.20 0.00 79 1018.7
20240722153033 84 0 0.0 2.6 0.00 0.20 0.00 81 1018.7
20240722152519 84 0 0.0 2.6 0.00 0.20 0.00 81 1018.6
20240722152020 84 0 0.0 0.0 0.00 0.20 0.00 79 1018.6
20240722151525 83 0 0.0 0.0 0.00 0.20 0.00 81 1018.7
20240722151021 82 0 0.0 2.6 0.00 0.20 0.00 80 1018.7
20240722150520 84 0 0.0 4.3 0.00 0.20 0.00 78 1018.6
20240722150027 83 0 0.0 4.3 0.00 0.20 0.00 81 1018.6
20240722145520 82 85 0.0 0.9 0.00 0.20 0.00 83 1018.6
20240722145019 81 0 0.0 2.6 0.00 0.20 0.00 86 1018.6
20240722144523 82 0 0.0 2.6 0.00 0.20 0.00 83 1018.6
20240722144020 82 0 0.0 2.6 0.00 0.20 0.00 81 1018.5
20240722143520 82 0 0.0 1.7 0.00 0.20 0.00 83 1018.6
20240722143031 80 0 0.0 1.7 0.00 0.20 0.00 84 1018.6
20240722142519 81 0 0.0 1.7 0.00 0.20 0.00 84 1018.6
20240722142021 82 0 0.0 1.7 0.00 0.20 0.00 84 1018.6
20240722141527 81 0 0.0 1.7 0.00 0.20 0.00 83 1018.5
20240722141021 81 0 0.0 1.7 0.00 0.20 0.00 85 1018.5
20240722140521 81 0 0.0 0.0 0.00 0.20 0.00 86 1018.5
20240722140026 80 0 0.0 0.0 0.00 0.20 0.00 86 1018.6
20240722135520 79 0 0.0 2.6 0.00 0.20 0.00 88 1018.4
20240722135020 79 0 0.0 2.6 0.00 0.20 0.00 89 1018.5
20240722134526 80 0 0.0 2.6 0.00 0.20 0.00 89 1018.5
20240722134023 80 0 0.0 0.0 0.00 0.20 0.00 88 1018.5
20240722133520 79 0 0.0 0.9 0.00 0.20 0.00 91 1018.5
20240722133025 78 0 0.0 0.9 0.00 0.20 0.00 92 1018.5
20240722132519 78 0 0.0 0.9 0.00 0.20 0.00 93 1018.5
20240722132022 78 0 0.0 1.7 0.00 0.20 0.00 94 1018.5
20240722131524 77 0 0.0 1.7 0.00 0.20 0.00 95 1018.4
20240722131020 76 0 0.0 0.9 0.00 0.20 0.00 97 1018.5
20240722130520 76 0 0.0 0.9 0.00 0.20 0.00 97 1018.6
20240722130040 76 0 0.0 0.0 0.00 0.20 0.00 98 1018.5
20240722125522 76 0 0.0 0.0 0.00 0.20 0.00 98 1018.5
20240722125021 76 0 0.0 0.0 0.00 0.20 0.00 98 1018.5
20240722124529 75 0 0.0 0.0 0.00 0.20 0.00 98 1018.5
20240722124021 75 0 0.0 0.0 0.00 0.20 0.00 98 1018.5
20240722123523 75 0 0.0 0.0 0.00 0.20 0.00 98 1018.3
20240722123026 75 0 0.0 0.0 0.00 0.20 0.00 98 1018.4
20240722122518 75 0 0.0 0.0 0.00 0.20 0.00 98 1018.3
20240722122020 75 0 0.0 0.0 0.00 0.20 0.00 98 1018.4
20240722121537 75 0 0.0 0.9 0.00 0.20 0.00 98 1018.4
20240722121022 75 0 0.0 0.9 0.00 0.20 0.00 99 1018.4
20240722120522 74 0 0.0 0.9 0.00 0.20 0.00 98 1018.5
20240722120041 74 0 0.0 0.0 0.00 0.20 0.00 99 1018.5
20240722115521 74 0 0.0 0.0 0.00 0.20 0.00 99 1018.4
20240722115022 74 0 0.0 0.0 0.00 0.20 0.00 99 1018.4
20240722114539 74 0 0.0 0.0 0.00 0.20 0.00 99 1018.4
20240722114022 73 0 0.0 0.0 0.00 0.20 0.00 99 1018.3
20240722113522 74 0 0.0 0.0 0.00 0.20 0.00 99 1018.3
20240722113029 73 0 0.0 0.0 0.00 0.20 0.00 99 1018.2
20240722112520 73 0 0.0 0.0 0.00 0.20 0.00 99 1018.2
20240722112022 74 0 0.0 0.0 0.00 0.20 0.00 99 1018.3
20240722111537 73 0 0.0 0.0 0.00 0.20 0.00 99 1018.3
20240722111019 73 0 0.0 0.0 0.00 0.20 0.00 99 1018.2
20240722110520 73 0 0.0 0.0 0.00 0.20 0.00 99 1018.2
20240722110046 73 0 0.0 0.0 0.00 0.20 0.00 99 1018.3
20240722105519 73 0 0.0 0.0 0.00 0.20 0.00 99 1018.3
20240722105019 73 0 0.0 0.0 0.00 0.20 0.00 99 1018.2
20240722104522 73 0 0.0 0.0 0.00 0.20 0.00 99 1018.2
20240722104020 73 0 0.0 0.0 0.00 0.20 0.00 99 1018.2
20240722103522 73 0 0.0 0.0 0.00 0.20 0.00 99 1018.1
20240722103027 73 0 0.0 0.0 0.00 0.20 0.00 99 1018.2
20240722102524 73 0 0.0 0.0 0.00 0.20 0.00 99 1018.1
20240722102022 73 0 0.0 0.0 0.00 0.20 0.00 99 1017.9
20240722101528 73 0 0.0 0.0 0.00 0.20 0.00 99 1017.9
20240722101024 73 0 0.0 0.0 0.00 0.20 0.00 99 1017.9
20240722100523 73 0 0.0 0.0 0.00 0.20 0.00 99 1017.9
20240722100027 73 0 0.0 0.0 0.00 0.20 0.00 99 1017.8
20240722095527 73 0 0.0 0.0 0.00 0.20 0.00 99 1017.7
20240722095022 73 0 0.0 0.0 0.00 0.20 0.00 99 1017.7
20240722094526 73 0 0.0 0.0 0.00 0.20 0.00 99 1017.7
20240722094022 72 0 0.0 0.0 0.00 0.20 0.00 99 1017.6
20240722093523 72 0 0.0 0.0 0.00 0.20 0.00 98 1017.6
20240722093029 72 0 0.0 0.0 0.00 0.20 0.00 98 1017.5
20240722092523 73 0 0.0 0.0 0.00 0.20 0.00 98 1017.4
20240722092022 72 0 0.0 0.0 0.00 0.20 0.00 98 1017.3
20240722091527 72 0 0.0 0.0 0.00 0.20 0.00 98 1017.4
20240722091022 73 0 0.0 0.0 0.00 0.20 0.00 98 1017.4
20240722090522 73 0 0.0 0.0 0.00 0.20 0.00 98 1017.4
20240722090024 73 0 0.0 0.0 0.00 0.20 0.00 98 1017.4
20240722085522 72 0 0.0 0.0 0.00 0.20 0.00 98 1017.4
20240722085022 73 0 0.0 0.0 0.00 0.20 0.00 99 1017.4
20240722084526 73 0 0.0 0.0 0.00 0.20 0.00 98 1017.5
20240722084021 73 0 0.0 0.0 0.00 0.20 0.00 98 1017.5
20240722083524 73 0 0.0 0.0 0.00 0.20 0.00 99 1017.5
20240722083027 73 0 0.0 0.0 0.00 0.20 0.00 99 1017.5
20240722082520 73 0 0.0 0.0 0.00 0.20 0.00 99 1017.5
20240722082022 73 0 0.0 0.0 0.00 0.20 0.00 99 1017.4
20240722081538 73 0 0.0 0.0 0.00 0.20 0.00 98 1017.3
20240722081023 73 0 0.0 0.0 0.00 0.20 0.00 98 1017.3
20240722080523 73 0 0.0 0.0 0.00 0.20 0.00 98 1017.3
20240722080026 73 0 0.0 0.0 0.00 0.20 0.00 98 1017.1
20240722075524 73 0 0.0 0.0 0.00 0.20 0.00 98 1017.3
20240722075023 73 0 0.0 0.0 0.00 0.20 0.00 98 1017.2
20240722074527 73 0 0.0 0.0 0.00 0.20 0.00 98 1017.3
20240722074025 73 0 0.0 0.0 0.00 0.20 0.00 98 1017.4
20240722073523 73 0 0.0 0.0 0.00 0.20 0.00 98 1017.5
20240722073028 73 0 0.0 0.0 0.00 0.20 0.00 98 1017.5
20240722072526 73 0 0.0 0.0 0.00 0.20 0.00 98 1017.5
20240722072022 73 0 0.0 0.0 0.00 0.20 0.00 98 1017.5
20240722071535 74 0 0.0 0.0 0.00 0.20 0.00 99 1017.6
20240722071022 73 0 0.0 0.0 0.00 0.20 0.00 99 1017.6
20240722070523 74 0 0.0 0.0 0.00 0.20 0.00 98 1017.6
20240722070030 73 0 0.0 0.0 0.00 0.20 0.00 98 1017.5
20240722065523 73 0 0.0 0.0 0.00 0.20 0.00 98 1017.6
20240722065022 73 0 0.0 0.0 0.00 0.20 0.00 99 1017.6
20240722064528 73 0 0.0 0.0 0.00 0.20 0.00 98 1017.7
20240722064019 73 0 0.0 0.0 0.00 0.20 0.00 98 1017.7
20240722063523 74 0 0.0 0.0 0.00 0.20 0.00 98 1017.7
20240722063029 74 0 0.0 0.0 0.00 0.20 0.00 98 1017.8
20240722062523 74 0 0.0 0.0 0.00 0.20 0.00 98 1017.9
20240722062026 74 0 0.0 0.0 0.00 0.20 0.00 98 1017.9
20240722061530 74 0 0.0 0.0 0.00 0.20 0.00 98 1018.0
20240722061023 74 0 0.0 0.0 0.00 0.20 0.00 98 1018.1
20240722060523 74 0 0.0 0.0 0.00 0.20 0.00 98 1018.1
20240722060029 74 0 0.0 0.0 0.00 0.20 0.00 98 1018.2
20240722055526 74 0 0.0 0.0 0.00 0.20 0.00 98 1018.3
20240722055022 74 0 0.0 0.0 0.00 0.20 0.00 98 1018.3
20240722054525 74 0 0.0 0.0 0.00 0.20 0.00 98 1018.3
20240722054022 74 0 0.0 0.0 0.00 0.20 0.00 98 1018.4
20240722053522 74 0 0.0 0.0 0.00 0.20 0.00 98 1018.6
20240722053027 74 0 0.0 0.0 0.00 0.20 0.00 98 1018.6
20240722052525 74 0 0.0 0.0 0.00 0.20 0.00 98 1018.7
20240722052021 74 0 0.0 0.0 0.00 0.20 0.00 98 1018.7
20240722051527 74 0 0.0 0.0 0.00 0.20 0.00 98 1018.7
20240722051022 75 0 0.0 0.0 0.00 0.20 0.00 98 1018.7
20240722050519 75 0 0.0 0.9 0.00 0.20 0.00 98 1018.7
20240722050037 75 0 0.0 0.9 0.00 0.20 0.00 98 1018.7
20240722045519 75 0 0.0 0.0 0.00 0.20 0.00 98 1018.7
20240722045023 75 0 0.0 0.0 0.00 0.20 0.00 98 1018.8
20240722044538 75 0 0.0 0.0 0.00 0.20 0.00 98 1018.9